CAPE
1573 1107 883 1352 1450 948 695 897 805 124 320 481 630 654 636 782 893 884 828 992 870 905 1004 968 938 1079 1142 1114 1160 1250 1370 1308 1341 1619 1528 1412 1326 840 687 734 750 1042
853 687 912 1248 1539 1001 718 310 649 470 296 322 659 610 846 853 755 710 740 729 756 663 750 677 821 1020 1168 997 1212 1212 1396 1454 1337 1095 1289 1301 1460 1052 486 433 468 634
630 610 800 533 626 732 293 314 268 332 552 594 471 461 566 595 792 697 779 683 658 702 749 858 769 958 1163 1293 1302 1276 1104 1209 1402 1183 1498 1222 831 607 513 350 603 473
1144 834 476 330 374 145 244 340 591 448 768 1466 752 849 539 465 450 606 761 779 783 903 853 718 846 909 1057 1117 1136 1096 1058 1152 1052 1141 1079 1129 994 884 765 783 694 524
1257 814 573 336 492 484 658 361 157 140 332 509 402 622 943 1142 1014 746 682 817 905 648 630 794 902 924 1152 1139 1134 1284 1256 1378 1222 1058 1198 1386 1658 971 743 946 581 579
1001 750 934 924 585 618 466 299 529 294 202 225 816 656 604 728 781 668 641 577 310 340 382 548 600 775 908 996 1410 1646 1867 1854 1500 1298 858 1016 1047 977 890 738 750 650
1026 874 565 566 480 583 628 522 575 557 397 515 541 738 642 672 695 820 833 707 672 792 588 732 823 855 1082 1197 1241 1444 1590 1766 1327 1143 1136 1218 1373 1109 921 900 678 452
958 870 984 1032 678 810 822 705 478 888 807 733 542 664 832 618 644 564 562 760 690 726 963 1018 1045 1128 757 745 851 1000 1244 961 902 883 1078 1114 1197 1061 796 590 472 452
1163 1135 953 893 821 699 332 308 340 627 512 466 617 219 692 958 922 744 992 863 824 936 1106 1152 1296 1188 924 885 933 1083 1126 1119 982 722 1332 1344 1035 862 712 553 464 440
1118 1148 733 404 284 489 241 152 103 122 199 668 720 323 250 340 288 336 414 662 804 710 784 1077 1329 1619 1039 894 1061 991 1056 1050 932 1182 1358 1286 1116 944 622 534 467 458
847 771 699 689 446 118 129 44 14 6 28 2 6 5 114 234 734 837 739 644 663 764 933 890 1337 1706 1395 1050 1178 1410 1052 891 1050 792 672 1132 1430 1138 673 681 542 451
939 722 632 640 626 490 287 231 118 104 14 1 79 154 588 250 165 197 264 583 829 778 670 827 960 1986 1881 1827 1959 1009 965 948 1328 1506 1384 1222 1210 1302 917 718 612 575
1024 994 843 555 899 764 549 213 121 40 24 186 0 0 6 44 25 95 468 598 632 732 766 833 826 884 1558 2149 1936 1724 1751 1991 1659 1189 1375 1497 1340 1112 1006 690 640 640
996 1149 999 1028 902 1052 876 759 538 562 815 879 608 441 180 267 117 170 208 182 429 537 613 555 717 1010 2066 2167 1185 905 1024 764 715 694 771 1190 1526 1510 1130 784 717 703
1372 1124 1200 1485 1190 1237 1060 917 884 1051 1146 1110 1088 922 655 450 388 321 383 509 463 496 554 846 983 1137 1344 1008 819 973 1406 904 629 490 649 1350 1395 1181 948 787 789 807
1562 1225 1356 1268 1424 1217 1288 1288 1202 1286 1014 1116 1224 1088 1208 1095 1118 1028 354 148 318 702 971 873 809 736 736 543 615 1175 1390 1325 947 908 1020 1158 1260 1202 968 729 664 645
1602 1555 1437 1548 1516 1123 1038 1064 1300 1318 1358 1424 1594 1496 1448 1431 950 540 188 113 225 174 258 488 315 351 52 140 431 408 1117 1581 1144 979 916 768 661 632 660 730 774 766
1659 1730 1777 1738 1632 1619 1538 1486 1374 1434 1517 1642 1701 1456 1727 1527 988 845 617 519 244 278 565 492 692 182 0 44 198 300 494 1191 1310 752 565 552 521 516 558 710 786 1041
1878 1890 1902 1865 1739 1672 1726 1642 1520 1344 1515 1640 1620 1852 1598 1281 1184 708 600 829 942 1275 928 1047 922 235 85 134 142 349 558 802 1242 1299 1092 1045 1090 944 926 976 1196 1136
2015 1738 1842 1764 1910 1747 1616 1648 1685 1633 1766 1388 1396 1614 1261 906 903 827 844 901 985 1712 1758 1203 992 343 2 28 144 429 610 676 1154 1252 1304 1448 1479 1270 1003 1302 1732 953
2100 2003 1683 1867 1868 1718 1541 1563 1813 1796 1845 1770 1316 1063 1097 1298 1061 992 1153 760 1144 1484 1502 1238 100 599 0 186 197 136 0 16 684 1113 1346 1671 1713 1500 1584 1583 1192 1164
2064 1970 1816 1692 1805 1753 1608 1699 2052 2016 1724 2362 1936 1462 984 730 704 638 561 631 942 1312 908 913 449 0 208 246 130 72 0 230 864 1110 1401 1447 1311 1390 1400 1734 1652 1299
1736 1745 1756 1670 1727 1710 1551 1268 1308 1290 1515 1337 1080 814 788 970 1034 830 630 707 686 973 1392 1090 912 806 0 0 144 0 4 527 1046 1113 1305 1405 1632 1282 1091 1315 1492 1250
1542 1470 1532 1654 1712 1511 1508 1636 1575 1649 1823 2227 1259 877 904 840 650 752 695 1122 629 650 696 918 568 586 0 0 0 0 78 443 1097 1550 1573 1602 1353 1250 1524 1168 1138 1642
1684 1638 1612 1696 1716 1743 1318 917 1014 1687 2189 978 833 1050 979 1011 732 509 569 314 214 166 224 710 444 249 197 375 412 352 194 770 1443 1756 1570 1411 1692 1608 1165 754 841 830
1759 2090 1856 1511 1506 1179 1264 1782 1293 2813 917 1096 994 474 358 589 571 179 722 387 356 258 144 259 312 433 1302 510 387 304 0 335 1588 1604 1310 1324 1396 1300 1212 1072 1310 821
Wind_Speed
30 33 33 32 34 34 33 32 34 32 31 32 32 31 32 33 32 33 33 34 34 33 34 34 34 35 35 36 37 38 39 39 39 40 40 41 41 40 39 38 38 39
34 34 35 35 36 35 35 36 35 36 33 33 34 34 33 34 34 34 35 34 34 34 34 34 34 35 35 36 37 38 39 41 40 41 42 42 43 42 40 39 39 40
33 35 38 38 37 37 37 37 37 36 36 35 34 34 34 35 35 35 34 35 35 35 35 36 35 36 36 37 38 38 39 41 42 44 44 43 43 42 41 39 42 41
35 36 38 38 38 38 38 37 36 38 37 37 37 35 35 34 34 34 35 33 35 35 36 36 36 37 38 39 40 40 40 42 43 45 45 44 43 42 41 43 44 42
37 39 39 39 40 39 39 36 34 35 35 36 37 37 36 36 35 35 35 35 36 36 36 36 38 39 39 40 41 41 43 43 45 46 45 45 45 44 45 47 45 44
38 39 40 42 41 40 39 37 36 35 35 33 36 36 37 37 36 36 36 35 34 34 36 37 38 40 40 40 42 43 44 44 45 47 47 44 43 44 45 45 44 45
38 39 40 42 41 40 37 36 36 36 35 34 35 35 36 36 36 37 37 38 38 38 37 38 40 40 41 41 43 44 44 45 45 47 47 46 46 45 44 44 46 47
36 39 42 43 41 39 38 36 36 35 37 37 36 37 38 38 37 37 38 39 39 39 39 40 40 40 39 42 42 44 45 45 46 48 47 48 48 46 45 47 47 46
39 41 43 43 40 39 37 36 36 36 37 36 37 37 39 39 39 39 39 39 39 40 42 42 43 42 43 43 41 43 46 46 47 47 48 48 47 46 46 47 45 43
42 42 43 42 41 39 37 34 32 33 35 38 39 40 40 40 40 40 42 42 42 42 42 42 43 46 45 45 44 46 47 45 45 46 46 46 45 47 48 46 43 41
43 45 44 40 36 35 36 nan nan nan nan nan nan nan 41 41 43 44 43 41 41 43 43 43 43 46 43 44 44 48 49 49 48 47 44 40 41 45 47 43 42 39
45 46 43 40 38 37 37 36 36 37 nan nan nan 43 44 44 44 45 45 44 42 42 42 44 43 47 47 44 44 44 48 48 48 48 45 40 39 43 44 41 41 39
47 47 42 38 38 38 38 38 38 nan nan 39 nan nan nan nan nan nan 45 45 43 42 42 42 42 41 43 46 43 45 46 43 44 44 40 39 40 41 40 39 39 38
47 47 42 39 38 39 41 41 40 40 41 44 45 44 43 43 43 45 44 43 42 42 42 41 41 42 46 48 50 45 44 44 46 41 35 34 39 40 38 36 35 35
49 46 41 41 42 42 43 42 42 43 45 47 48 48 47 45 45 46 45 44 43 42 41 42 41 43 49 48 47 43 45 44 39 36 35 36 39 37 34 32 31 32
50 45 42 42 43 44 44 44 44 45 46 48 49 49 48 48 48 48 45 44 43 43 43 43 46 49 47 51 47 44 45 46 42 37 36 36 34 32 30 27 27 29
50 45 43 45 46 45 45 44 45 47 48 49 50 51 50 50 49 46 44 42 40 40 41 46 51 50 nan 38 41 43 43 43 42 40 39 37 33 30 26 24 25 27
49 46 47 47 46 47 47 46 46 48 50 50 51 51 51 52 49 47 45 43 41 41 45 51 50 51 nan nan 47 41 38 40 40 38 37 36 35 30 26 23 22 21
48 48 50 49 49 48 48 48 49 50 50 50 50 53 53 53 51 50 48 46 45 47 49 49 51 48 nan 40 37 36 38 39 37 34 32 31 30 28 25 23 22 31
48 49 50 50 50 50 50 49 50 51 52 53 52 53 53 51 50 50 50 48 47 50 47 49 51 49 nan nan 33 33 35 37 35 31 28 26 26 25 24 24 28 34
50 50 50 49 50 51 51 52 52 53 53 52 53 52 50 50 49 50 50 48 49 50 48 48 nan 51 nan 39 37 38 nan nan 35 31 27 25 25 23 23 26 25 25
50 51 50 50 51 52 52 53 55 57 54 51 50 48 45 44 47 50 49 47 49 50 47 47 48 nan 48 48 45 nan nan 41 39 33 28 25 24 23 24 27 29 26
51 52 51 51 51 53 53 54 55 56 53 53 51 46 41 43 47 48 45 43 46 48 51 46 42 43 nan nan 46 nan nan 41 39 32 27 24 24 24 25 25 28 32
52 51 51 52 53 53 54 54 57 57 57 58 55 47 43 45 45 44 41 43 43 42 48 49 43 42 nan nan nan nan nan 38 35 31 27 25 23 23 25 25 24 23
50 51 52 52 53 52 53 52 55 56 57 57 55 51 46 44 42 40 42 41 36 39 42 48 43 44 44 38 39 39 40 37 32 28 25 24 23 23 25 25 24 24
49 52 52 50 50 51 51 53 54 55 56 56 55 51 46 44 43 46 48 46 40 39 41 41 38 34 36 36 34 36 nan 34 30 26 23 22 22 22 24 25 26 26
Wind_Direction
304 310 306 311 306 305 306 308 309 310 314 316 312 311 312 311 314 313 312 310 311 312 313 314 315 316 317 317 317 318 318 319 319 319 316 313 311 307 306 306 306 305
310 310 308 309 312 308 311 314 312 310 310 313 316 315 314 315 315 313 310 309 309 310 310 312 313 314 314 316 316 317 317 317 317 316 315 313 311 309 306 304 303 303
307 310 313 316 317 317 311 307 306 311 312 311 311 314 317 318 315 311 310 310 310 310 311 311 312 313 315 317 316 315 315 315 316 314 314 312 311 308 306 303 300 295
309 310 311 313 312 310 308 307 309 312 313 314 315 314 313 313 314 314 313 311 310 310 309 311 313 316 317 317 316 315 315 315 314 314 313 310 308 304 301 298 294 297
309 310 311 311 312 311 308 309 306 305 310 312 313 316 318 317 315 314 314 313 312 311 311 312 313 315 317 317 315 315 315 315 313 313 313 310 307 302 298 295 296 298
306 306 309 312 312 310 310 312 313 309 307 312 315 315 317 316 315 316 316 313 313 312 312 313 313 313 315 316 315 315 315 313 315 315 311 307 304 302 297 294 296 298
307 307 313 313 313 312 312 313 312 311 309 308 313 318 316 317 319 319 319 319 319 317 314 314 312 314 315 315 316 317 316 316 316 313 309 307 306 302 300 296 295 295
310 311 315 315 313 312 314 314 312 312 315 316 319 322 322 323 322 320 320 320 319 316 314 313 313 313 314 316 317 317 315 315 316 312 310 308 307 305 301 298 297 297
313 313 314 314 314 314 318 318 317 320 322 323 322 319 323 324 322 321 318 318 318 318 316 316 316 318 314 312 314 315 315 316 316 312 308 308 308 305 303 300 301 299
314 314 315 316 317 316 318 317 314 314 314 317 319 320 321 321 322 323 325 324 321 319 319 317 317 315 316 318 317 315 313 315 314 311 310 310 307 304 304 304 303 302
314 314 315 315 316 318 319 nan nan nan nan nan nan nan 323 326 327 321 318 319 321 319 318 318 318 319 320 321 323 317 316 317 314 310 310 310 306 306 308 309 307 304
312 313 315 317 320 322 321 318 312 311 nan nan nan 328 324 322 322 323 324 324 322 321 321 320 320 320 323 324 319 318 317 316 312 309 310 310 310 312 312 310 307 303
312 312 315 319 321 321 319 317 319 nan nan 319 nan nan nan nan nan nan 325 322 323 322 320 317 317 319 322 322 317 309 310 311 307 307 313 313 311 313 312 309 308 304
310 313 317 320 320 318 317 317 316 318 322 324 323 321 323 324 323 319 318 319 320 320 317 318 320 323 320 313 309 316 319 317 310 311 316 317 313 311 311 309 308 308
306 310 315 318 320 318 317 316 317 321 324 324 322 320 320 322 322 319 319 321 322 321 321 321 320 311 309 314 318 317 317 318 314 313 321 321 315 313 312 310 308 310
303 310 316 318 318 318 316 317 320 323 323 321 320 320 319 319 320 319 320 324 324 321 317 317 308 311 318 325 325 320 317 317 315 311 308 308 310 312 311 310 311 311
305 314 318 318 317 315 314 317 320 320 318 318 319 319 319 319 320 323 323 319 316 315 318 311 313 317 nan 323 328 334 325 316 309 306 306 305 303 303 303 304 307 310
311 317 318 317 316 315 315 318 318 317 316 317 318 317 319 320 319 319 319 317 316 318 312 313 317 318 nan nan 329 329 324 316 311 307 306 305 300 298 297 296 295 301
314 317 316 316 315 314 315 316 315 315 316 316 317 316 318 321 319 319 321 320 318 314 313 315 314 314 nan 321 319 315 318 318 310 306 304 303 299 295 296 296 296 288
315 315 314 314 314 314 313 312 312 312 314 315 315 317 321 321 320 319 318 317 314 313 312 312 314 316 nan nan 315 312 314 312 307 303 301 301 298 292 293 292 291 298
312 313 313 312 312 312 311 311 312 312 313 315 317 320 322 320 319 319 315 312 311 311 312 315 nan 317 nan 323 323 323 nan nan 308 305 303 302 295 294 301 303 300 304
310 310 311 310 310 310 310 311 309 307 312 315 317 318 319 318 316 316 315 314 311 311 312 315 316 nan 326 325 327 nan nan 312 311 309 305 303 296 296 302 303 303 309
308 309 309 309 308 308 308 309 310 311 317 318 317 319 319 316 314 314 312 311 311 313 313 316 318 322 nan nan 329 nan nan 313 309 305 303 302 297 297 298 300 306 319
308 308 307 308 307 308 307 307 310 315 317 315 317 319 318 317 315 310 309 309 306 311 316 316 318 324 nan nan nan nan nan 316 309 305 306 303 296 296 301 304 302 311
305 305 306 307 308 307 306 311 313 313 314 317 319 319 316 313 312 312 306 304 310 314 317 320 318 314 324 329 330 330 325 320 312 305 304 305 302 305 308 305 308 318
303 303 303 305 306 305 307 310 312 313 316 316 317 317 317 316 316 311 311 319 320 314 314 312 308 304 308 319 331 333 nan 316 311 305 304 306 306 306 305 307 310 311